Location: Lac Echo
(45.9375°N, 75.4580°W)
Time: 11:49:58
(UTC-05:00)

Amateur Radio Satellites - All Passes

Search period start: 27 February 2015 11:19
Search period end: 28 February 2015 11:19
Location: Lac Echo, 45.9375°N, 75.4580°W

Satellite Date Start Highest point End Downlink Frequencies (MHz)
Time Altitude Azimuth
HUMSAT D 27 Feb 11:21:07 11:24:57 38° 289° (WNW) 11:28:46 437.325/437.525
DUCHIFAT 1 27 Feb 11:21:21 11:24:23 18° 269° (W) 11:27:18 145.980
CUBEBUG 2 27 Feb 11:28:05 11:30:31 15° 298° (WNW) 11:32:48 437.445
BUGSAT 1 27 Feb 11:30:59 11:34:03 18° 269° (W) 11:37:01 437.445
TISAT 1 27 Feb 11:36:19 11:39:37 22° 92° (E) 11:43:00 437.305
POLYITAN 1 27 Feb 11:38:24 11:40:17 12° 273° (W) 11:41:58 437.675
POPSAT HIP 1 27 Feb 11:41:10 11:42:51 12° 273° (W) 11:44:17 437.405
ITAMSAT 1 27 Feb 11:47:16 11:49:44 14° 57° (ENE) 11:52:26 435.822/435.867
AISAT 27 Feb 11:49:57 11:53:56 31° 293° (WNW) 11:57:48 437.250
Oscar 19 27 Feb 11:54:47 11:59:30 38° 68° (ENE) 12:04:16 437.125/150
50 SAT 27 Feb 11:58:45 12:01:50 21° 293° (WNW) 12:04:49 437.505
VELOX 1 27 Feb 12:01:35 12:05:17 25° 294° (WNW) 12:08:53 145.980
ESTCUBE 1 27 Feb 12:02:03 12:06:27 46° 289° (WNW) 12:10:48 437.505/2401.250
CUSAT 1 27 Feb 12:05:24 12:07:19 17° 268° (W) 12:09:04 437.405
DX 1 27 Feb 12:06:39 12:07:58 11° 302° (WNW) 12:09:04 434.975-435.025
CUBEBUG 1 27 Feb 12:06:42 12:10:56 44° 289° (WNW) 12:15:06 437.445
Gurwin Techsat 1B 27 Feb 12:34:37 12:38:51 25° 63° (ENE) 12:43:12 435.225
SWISSCUBE 27 Feb 12:40:13 12:43:41 20° 91° (E) 12:47:17 437.505
ISS 27 Feb 12:42:50 12:45:48 32° 350° (N) 12:48:47 145.825
SO-50 27 Feb 12:45:27 12:48:01 14° 250° (WSW) 12:50:22 436.795
BEESAT 27 Feb 12:49:24 12:53:08 23° 92° (E) 12:56:57 436.000
AO-7 27 Feb 12:51:52 12:57:05 19° 45° (NE) 13:02:34 29.400- 29.500
SPROUT 27 Feb 12:53:56 12:58:08 50° 288° (WNW) 13:02:17 437.525
TISAT 1 27 Feb 13:11:40 13:15:35 36° 291° (WNW) 13:19:27 437.305
ITUPSAT 1 27 Feb 13:13:51 13:18:19 37° 97° (E) 13:22:49 437.325
ITAMSAT 1 27 Feb 13:23:17 13:28:31 83° 74° (ENE) 13:33:48 435.822/435.867
HORYU 2 27 Feb 13:28:33 13:31:40 20° 63° (ENE) 13:34:54 437.375
Oscar 19 27 Feb 13:34:26 13:38:58 30° 266° (W) 13:43:27 437.125/150
JAS-2 27 Feb 13:45:08 13:47:25 13° 51° (NE) 13:50:03 435.910
KKS-1 27 Feb 14:01:37 14:05:09 23° 93° (E) 14:08:44 437.445
Gurwin Techsat 1B 27 Feb 14:13:24 14:18:34 50° 261° (W) 14:23:45 435.225
STARS 27 Feb 14:16:44 14:20:07 22° 92° (E) 14:23:33 437.465
SWISSCUBE 27 Feb 14:17:13 14:21:55 51° 289° (WNW) 14:26:34 437.505
ISS 27 Feb 14:19:49 14:22:47 32° 10° (N) 14:25:45 145.825
BEESAT 27 Feb 14:26:39 14:31:14 45° 290° (WNW) 14:35:48 436.000
AO-7 27 Feb 14:40:18 14:48:32 68° 67° (ENE) 14:56:49 29.400- 29.500
ITUPSAT 1 27 Feb 14:51:59 14:56:08 28° 294° (WNW) 15:00:12 437.325
HORYU 2 27 Feb 15:03:44 15:08:02 49° 260° (W) 15:12:22 437.375
ITAMSAT 1 27 Feb 15:06:02 15:08:48 14° 274° (W) 15:11:19 435.822/435.867
JAS-2 27 Feb 15:25:59 15:31:21 70° 72° (ENE) 15:37:24 435.910
KKS-1 27 Feb 15:37:48 15:41:58 38° 291° (WNW) 15:46:03 437.445
YUBILEINY 27 Feb 15:38:34 15:46:25 41° 87° (E) 15:54:28 435.215
M-CUBED/EXP-1 PRIME 27 Feb 15:51:57 15:55:13 23° 100° (E) 15:58:44 437.505
STARS 27 Feb 15:52:38 15:56:47 40° 290° (WNW) 16:00:51 437.465
ISS 27 Feb 15:56:13 15:59:27 84° 213° (SSW) 16:02:43 145.825
AUBIESAT-1 27 Feb 15:57:03 16:00:21 23° 100° (E) 16:03:54 437.475
MOZHAYETS 4 27 Feb 16:22:42 16:26:59 36° 96° (E) 16:31:17
Cubesat XI-IV 27 Feb 16:22:51 16:27:19 28° 64° (ENE) 16:31:54 437.490
CUTE-I 27 Feb 16:32:36 16:37:20 33° 65° (ENE) 16:42:08 437.470
AO-7 27 Feb 16:34:49 16:42:02 30° 267° (W) 16:49:03 29.400- 29.500
BEESAT 2 27 Feb 17:02:46 17:03:46 11° 110° (ESE) 17:05:00 435.950
JAS-2 27 Feb 17:13:37 17:17:22 18° 275° (W) 17:21:08 435.910
M-CUBED/EXP-1 PRIME 27 Feb 17:26:28 17:30:15 39° 294° (WNW) 17:34:18 437.505
AUBIESAT-1 27 Feb 17:31:31 17:35:18 38° 295° (WNW) 17:39:21 437.475
ISS 27 Feb 17:33:46 17:35:29 13° 226° (SW) 17:37:07 145.825
YUBILEINY 27 Feb 17:34:42 17:43:08 50° 288° (WNW) 17:51:38 435.215
O/OREOS (USA 219) 27 Feb 17:55:30 17:57:48 14° 44° (NE) 18:00:16 437.305
HO-68 27 Feb 17:56:13 18:00:41 19° 51° (NE) 18:05:25 435.675
MOZHAYETS 4 27 Feb 18:00:11 18:04:06 27° 294° (WNW) 18:07:57
Cubesat XI-IV 27 Feb 18:02:05 18:07:14 46° 262° (W) 18:12:24 437.490
CUBESAT XI-V 27 Feb 18:11:30 18:15:56 39° 97° (E) 18:20:21 437.345
CUTE-I 27 Feb 18:12:22 18:17:22 38° 263° (W) 18:22:22 437.470
BEESAT 3 27 Feb 18:15:43 18:19:48 68° 123° (ESE) 18:23:57 437.485
AIST 2 27 Feb 18:15:48 18:19:15 25° 115° (ESE) 18:22:48 435.215
VERMONT LUNAR 27 Feb 18:18:06 18:18:28 10° 152° (SSE) 18:18:55 437.305
BRITE-PL 27 Feb 18:19:49 18:23:46 21° 62° (ENE) 18:27:46 437.365/2234.400
AIST 1 27 Feb 18:21:09 18:25:34 64° 79° (E) 18:29:56
STRAND 1 27 Feb 18:29:49 18:34:33 36° 96° (E) 18:39:18 437.568
BEESAT 2 27 Feb 18:37:13 18:41:22 86° 303° (WNW) 18:45:34 435.950
GOMX 1 27 Feb 18:42:38 18:46:32 21° 64° (ENE) 18:50:27 467.674
PRISM 27 Feb 18:48:50 18:53:06 85° 281° (WNW) 18:57:19 437.425
CANX-2 27 Feb 18:50:16 18:53:09 19° 65° (ENE) 18:56:08 2200.000
SEEDS 27 Feb 18:53:10 18:55:36 16° 63° (ENE) 18:58:11 437.485
CUTE 1.7 + AOD 2 27 Feb 19:08:45 19:12:12 25° 67° (ENE) 19:15:42 437.475
PHONESAT 2.4 27 Feb 19:32:54 19:35:14 16° 157° (SSE) 19:37:37 2401.200-2431.200
DOVE 4 27 Feb 19:32:59 19:37:46 39° 70° (ENE) 19:42:24 437.250
O/OREOS (USA 219) 27 Feb 19:33:23 19:38:02 86° 61° (ENE) 19:42:38 437.305
Oscar 11 27 Feb 19:33:33 19:36:07 16° 63° (ENE) 19:38:49 145.826/435.025
YUBILEINY 27 Feb 19:39:59 19:42:53 11° 315° (NW) 19:45:14 435.215
HO-68 27 Feb 19:40:18 19:47:25 77° 71° (ENE) 19:54:37 435.675
CUBESAT XI-V 27 Feb 19:49:16 19:53:14 26° 294° (WNW) 19:57:06 437.345
DX 1 27 Feb 19:52:09 19:54:24 14° 60° (ENE) 19:56:49 434.975-435.025
VERMONT LUNAR 27 Feb 19:52:46 19:55:44 26° 167° (SSE) 19:58:42 437.305
AIST 2 27 Feb 19:53:36 19:57:41 42° 313° (NW) 20:01:49 435.215
BEESAT 3 27 Feb 19:55:15 19:58:21 20° 323° (NW) 20:01:24 437.485
BRITE-PL 27 Feb 19:56:09 20:01:49 71° 258° (WSW) 20:07:20 437.365/2234.400
GONETS M04 27 Feb 19:58:35 19:59:26 10° 71° (ENE) 20:01:00
DELFI C3 27 Feb 19:59:01 20:02:01 21° 66° (ENE) 20:05:06 145.870
AIST 1 27 Feb 20:00:35 20:02:44 13° 276° (W) 20:04:40
COMPASS 1 27 Feb 20:04:37 20:08:45 68° 75° (ENE) 20:12:54 437.405
AAUSAT CUBESAT 2 27 Feb 20:04:51 20:08:56 60° 74° (ENE) 20:13:02 437.432
CINEMA 3 27 Feb 20:06:48 20:11:22 44° 71° (ENE) 20:15:48 145.822/145.860
STRAND 1 27 Feb 20:09:07 20:13:44 33° 294° (WNW) 20:18:14 437.568
ZACube-1 27 Feb 20:10:22 20:13:29 20° 65° (ENE) 20:16:39 437.345
FUNcube-1 27 Feb 20:10:27 20:13:31 19° 65° (ENE) 20:16:39 145.935
BEESAT 2 27 Feb 20:17:32 20:20:13 16° 327° (NNW) 20:22:50 435.950
GOMX 1 27 Feb 20:18:54 20:24:18 62° 260° (W) 20:29:29 467.674
UWE-3 27 Feb 20:20:55 20:24:45 29° 69° (ENE) 20:28:34 435.000/436.395/437.385
UKube-1 27 Feb 20:24:32 20:28:09 26° 66° (ENE) 20:31:51 .
CANX-2 27 Feb 20:24:44 20:28:49 47° 261° (W) 20:32:54 2200.000
SEEDS 27 Feb 20:26:55 20:31:03 57° 260° (W) 20:35:12 437.485
PRISM 27 Feb 20:27:07 20:27:58 10° 301° (WNW) 20:28:35 437.425
HUMSAT D 27 Feb 20:40:39 20:43:46 21° 66° (ENE) 20:46:58 437.325/437.525
PCSat 27 Feb 20:43:29 20:48:11 31° 111° (ESE) 20:52:58 145.827
CUTE 1.7 + AOD 2 27 Feb 20:44:14 20:48:02 32° 264° (W) 20:51:50 437.475
CUBEBUG 2 27 Feb 20:50:25 20:54:57 69° 74° (ENE) 20:59:21 437.445
Oscar 11 27 Feb 21:07:39 21:11:54 59° 260° (W) 21:16:11 145.826/435.025
PHONESAT 2.4 27 Feb 21:09:52 21:13:09 32° 173° (S) 21:16:26 2401.200-2431.200
DOVE 4 27 Feb 21:11:05 21:15:37 29° 266° (W) 21:19:56 437.250
50 SAT 27 Feb 21:12:37 21:16:07 30° 69° (ENE) 21:19:38 437.505
AISAT 27 Feb 21:13:40 21:17:47 37° 69° (ENE) 21:21:57 437.250
O/OREOS (USA 219) 27 Feb 21:15:29 21:16:49 11° 262° (W) 21:17:53 437.305
VELOX 1 27 Feb 21:24:40 21:28:57 46° 70° (ENE) 21:33:16 145.980
DX 1 27 Feb 21:25:46 21:30:09 73° 257° (WSW) 21:34:34 434.975-435.025
ESTCUBE 1 27 Feb 21:28:05 21:31:46 26° 66° (ENE) 21:35:34 437.505/2401.250
CUBEBUG 1 27 Feb 21:29:43 21:33:14 24° 66° (ENE) 21:36:52 437.445
RS-15 27 Feb 21:29:53 21:32:04 11° 95° (E) 21:35:19 29.354- 29.394
VERMONT LUNAR 27 Feb 21:30:03 21:33:14 33° 184° (S) 21:36:24 437.305
HO-68 27 Feb 21:30:32 21:36:00 22° 271° (W) 21:41:14 435.675
DELFI C3 27 Feb 21:33:16 21:37:02 37° 263° (W) 21:40:49 145.870
AIST 2 27 Feb 21:36:12 21:37:27 11° 335° (NNW) 21:38:36 435.215
BRITE-PL 27 Feb 21:40:01 21:41:20 11° 278° (W) 21:42:15 437.365/2234.400
UNISAT 6 27 Feb 21:42:22 21:45:00 16° 90° (E) 21:47:49 437.425
AAUSAT CUBESAT 2 27 Feb 21:42:57 21:45:03 13° 272° (W) 21:46:59 437.432
COMPASS 1 27 Feb 21:43:24 21:45:01 12° 273° (W) 21:46:26 437.405
CINEMA 3 27 Feb 21:44:56 21:48:47 23° 268° (W) 21:52:25 145.822/145.860
ZACube-1 27 Feb 21:45:20 21:49:36 46° 261° (W) 21:53:47 437.345
FUNcube-1 27 Feb 21:45:21 21:49:37 47° 261° (W) 21:53:48 145.935
GONETS M04 27 Feb 21:46:07 21:54:29 56° 91° (E) 22:02:55
UWE-3 27 Feb 21:57:18 22:01:17 30° 265° (W) 22:05:09 435.000/436.395/437.385
UKube-1 27 Feb 22:00:15 22:04:13 33° 263° (W) 22:08:11 .
TIGRISAT 27 Feb 22:08:23 22:12:05 29° 95° (E) 22:15:51 435.000
NANOSAT C BR1 27 Feb 22:10:36 22:13:28 18° 91° (E) 22:16:25 145.865
HUMSAT D 27 Feb 22:15:22 22:19:21 40° 262° (W) 22:23:19 437.325/437.525
SPROUT 27 Feb 22:15:44 22:18:46 19° 64° (ENE) 22:21:55 437.525
ANTELSAT 27 Feb 22:19:51 22:23:53 39° 97° (E) 22:27:56 437.575/2403.000
PCSat 27 Feb 22:26:16 22:31:28 46° 310° (NW) 22:36:42 145.827
CUBEBUG 2 27 Feb 22:29:50 22:32:10 13° 272° (W) 22:34:15 437.445
TISAT 1 27 Feb 22:31:10 22:34:36 25° 66° (ENE) 22:38:09 437.305
QB50P1 27 Feb 22:41:46 22:45:44 37° 97° (E) 22:49:41 145.935-145.965
QB50P2 27 Feb 22:44:22 22:48:23 41° 98° (E) 22:52:24 145.880/145.840
DANDE 27 Feb 22:46:06 22:48:10 12° 88° (E) 22:50:29 436.750
50 SAT 27 Feb 22:47:52 22:51:11 24° 266° (W) 22:54:25 437.505
PHONESAT 2.4 27 Feb 22:47:58 22:51:12 30° 190° (S) 22:54:25 2401.200-2431.200
AISAT 27 Feb 22:50:45 22:54:31 25° 266° (W) 22:58:13 437.250
DUCHIFAT 1 27 Feb 23:02:21 23:06:33 62° 101° (E) 23:10:44 145.980
VELOX 1 27 Feb 23:02:25 23:05:48 20° 269° (W) 23:09:05 145.980
ESTCUBE 1 27 Feb 23:04:19 23:08:31 37° 263° (W) 23:12:45 437.505/2401.250
CUBEBUG 1 27 Feb 23:05:16 23:09:27 39° 263° (W) 23:13:38 437.445
VERMONT LUNAR 27 Feb 23:08:07 23:10:40 19° 200° (SSW) 23:13:10 437.305
BUGSAT 1 27 Feb 23:09:34 23:13:43 56° 100° (E) 23:17:47 437.445
UNISAT 6 27 Feb 23:18:01 23:22:11 51° 288° (WNW) 23:26:22 437.425
POLYITAN 1 27 Feb 23:18:37 23:22:53 86° 289° (WNW) 23:27:07 437.675
POPSAT HIP 1 27 Feb 23:20:52 23:25:09 83° 285° (WNW) 23:29:21 437.405
CUSAT 1 27 Feb 23:31:38 23:37:19 33° 96° (E) 23:41:54 437.405
RS-15 27 Feb 23:31:41 23:42:08 57° 116° (ESE) 23:52:50 29.354- 29.394
GONETS M04 27 Feb 23:43:53 23:51:48 36° 294° (WNW) 23:59:36
TIGRISAT 27 Feb 23:45:09 23:48:51 29° 292° (WNW) 23:52:30 435.000
NANOSAT C BR1 27 Feb 23:45:33 23:49:37 45° 289° (WNW) 23:53:38 145.865
SWISSCUBE 27 Feb 23:49:07 23:53:14 31° 66° (ENE) 23:57:28 437.505
SPROUT 27 Feb 23:50:21 23:54:34 48° 261° (W) 23:58:48 437.525
ANTELSAT 27 Feb 23:57:10 00:00:31 22° 294° (WNW) 00:03:47 437.575/2403.000
BEESAT 27 Feb 23:58:12 00:02:28 34° 67° (ENE) 00:06:49 436.000
TISAT 1 28 Feb 00:06:21 00:10:18 35° 263° (W) 00:14:15 437.305
Oscar 19 28 Feb 00:06:45 00:07:22 10° 84° (E) 00:08:20 437.125/150
PCSat 28 Feb 00:13:47 00:16:22 13° 334° (NNW) 00:18:50 145.827
QB50P1 28 Feb 00:18:05 00:21:27 23° 294° (WNW) 00:24:42 145.935-145.965
QB50P2 28 Feb 00:20:50 00:24:05 21° 295° (WNW) 00:27:14 145.880/145.840
ITUPSAT 1 28 Feb 00:23:00 00:27:40 57° 72° (ENE) 00:32:24 437.325
DANDE 28 Feb 00:24:08 00:31:17 74° 100° (E) 00:36:40 436.750
PHONESAT 2.4 28 Feb 00:27:07 00:29:04 14° 206° (SSW) 00:30:56 2401.200-2431.200
DUCHIFAT 1 28 Feb 00:39:30 00:41:59 15° 298° (WNW) 00:44:18 145.980
BUGSAT 1 28 Feb 00:46:11 00:48:49 16° 298° (WNW) 00:51:18 437.445
BEESAT 3 28 Feb 00:55:39 00:58:19 16° 34° (NE) 01:01:01 437.485
POLYITAN 1 28 Feb 00:57:26 00:58:11 10° 301° (WNW) 00:58:44 437.675
AIST 2 28 Feb 00:58:31 00:58:53 10° 23° (NNE) 00:59:23 435.215
KKS-1 28 Feb 01:02:10 01:06:02 30° 67° (ENE) 01:09:57 437.445
CUSAT 1 28 Feb 01:14:11 01:20:11 38° 285° (WNW) 01:24:48 437.405
STARS 28 Feb 01:16:08 01:19:50 27° 67° (ENE) 01:23:38 437.465
BEESAT 2 28 Feb 01:17:17 01:20:26 20° 37° (NE) 01:23:37 435.950
SO-50 28 Feb 01:21:50 01:24:34 16° 111° (ESE) 01:27:33 436.795
SWISSCUBE 28 Feb 01:26:43 01:31:05 34° 264° (W) 01:35:25 437.505
ITAMSAT 1 28 Feb 01:34:19 01:38:30 25° 92° (E) 01:42:47 435.822/435.867
BEESAT 28 Feb 01:36:10 01:40:22 30° 265° (W) 01:44:34 436.000
Oscar 19 28 Feb 01:42:33 01:47:42 80° 103° (ESE) 01:52:50 437.125/150
RS-15 28 Feb 01:44:09 01:54:47 52° 321° (NW) 02:05:38 29.354- 29.394
YUBILEINY 28 Feb 01:45:18 01:51:57 24° 58° (ENE) 01:58:52 435.215
ITUPSAT 1 28 Feb 02:02:39 02:06:00 18° 270° (W) 02:09:13 437.325
DANDE 28 Feb 02:10:07 02:14:54 20° 293° (WNW) 02:18:44 436.750
Gurwin Techsat 1B 28 Feb 02:26:53 02:32:06 54° 99° (E) 02:37:19 435.225
BEESAT 3 28 Feb 02:32:51 02:37:02 89° 242° (WSW) 02:41:08 437.485
AIST 2 28 Feb 02:34:43 02:38:45 38° 45° (NE) 02:42:43 435.215
JAS-2 28 Feb 02:35:12 02:36:11 10° 79° (E) 02:37:49 435.910
KKS-1 28 Feb 02:38:38 02:42:39 31° 264° (W) 02:46:38 437.445
AO-7 28 Feb 02:40:49 02:45:42 17° 85° (E) 02:51:02 29.400- 29.500
M-CUBED/EXP-1 PRIME 28 Feb 02:43:56 02:46:59 37° 65° (ENE) 02:50:11 437.505
AUBIESAT-1 28 Feb 02:48:34 02:51:38 37° 65° (ENE) 02:54:51 437.475
STARS 28 Feb 02:52:11 02:56:15 33° 264° (W) 03:00:16 437.465
HORYU 2 28 Feb 02:52:56 02:56:38 26° 94° (E) 03:00:23 437.375
BEESAT 2 28 Feb 02:54:53 02:59:02 64° 238° (WSW) 03:03:06 435.950
SO-50 28 Feb 02:59:57 03:04:35 73° 308° (NW) 03:09:24 436.795
ITAMSAT 1 28 Feb 03:13:16 03:18:18 48° 291° (WNW) 03:23:17 435.822/435.867
Oscar 19 28 Feb 03:23:19 03:26:29 16° 301° (WNW) 03:29:29 437.125/150
MOZHAYETS 4 28 Feb 03:27:02 03:31:21 45° 71° (ENE) 03:35:45
YUBILEINY 28 Feb 03:41:15 03:50:10 87° 262° (W) 03:59:00 435.215
PCSat 28 Feb 03:46:08 03:48:34 13° 26° (NNE) 03:51:08 145.827
RS-15 28 Feb 04:01:05 04:10:25 30° 353° (N) 04:20:00 29.354- 29.394
Gurwin Techsat 1B 28 Feb 04:07:33 04:11:47 24° 298° (WNW) 04:15:54 435.225
PRISM 28 Feb 04:09:23 04:10:42 11° 59° (ENE) 04:12:11 437.425
STRAND 1 28 Feb 04:13:31 04:14:43 11° 55° (NE) 04:16:10 437.568
AIST 2 28 Feb 04:13:34 04:17:15 28° 244° (WSW) 04:20:50 435.215
BEESAT 3 28 Feb 04:14:03 04:14:30 10° 251° (WSW) 04:14:45 437.485
JAS-2 28 Feb 04:15:40 04:22:47 57° 99° (E) 04:30:27 435.910
M-CUBED/EXP-1 PRIME 28 Feb 04:20:25 04:22:15 14° 264° (W) 04:24:00 437.505
AUBIESAT-1 28 Feb 04:25:00 04:26:51 14° 264° (W) 04:28:35 437.475
HORYU 2 28 Feb 04:29:20 04:33:24 35° 291° (WNW) 04:37:24 437.375
AO-7 28 Feb 04:31:39 04:40:01 80° 107° (ESE) 04:48:19 29.400- 29.500
SO-50 28 Feb 04:42:50 04:46:02 17° 331° (NNW) 04:49:13 436.795
MOZHAYETS 4 28 Feb 05:05:22 05:08:52 21° 269° (W) 05:12:16
CUBESAT XI-V 28 Feb 05:17:10 05:21:41 50° 71° (ENE) 05:26:16 437.345
PCSat 28 Feb 05:28:15 05:33:29 45° 50° (NE) 05:38:41 145.827
YUBILEINY 28 Feb 05:39:51 05:45:52 20° 282° (WNW) 05:51:27 435.215
PRISM 28 Feb 05:41:28 05:45:37 83° 256° (WSW) 05:49:49 437.425
STRAND 1 28 Feb 05:47:58 05:53:03 67° 72° (ENE) 05:58:12 437.568
JAS-2 28 Feb 06:01:12 06:07:37 36° 296° (WNW) 06:14:23 435.910
RS-15 28 Feb 06:16:34 06:26:48 39° 27° (NNE) 06:37:33 29.354- 29.394
Cubesat XI-IV 28 Feb 06:16:34 06:21:54 60° 101° (E) 06:27:13 437.490
AO-7 28 Feb 06:25:18 06:32:07 29° 308° (NW) 06:38:43 29.400- 29.500
CUTE-I 28 Feb 06:26:26 06:31:49 72° 102° (ESE) 06:37:11 437.470
AIST 1 28 Feb 06:53:26 06:57:19 33° 91° (E) 07:01:17
CUBESAT XI-V 28 Feb 06:55:59 06:59:28 20° 270° (W) 07:02:52 437.345
HO-68 28 Feb 07:08:46 07:10:36 11° 81° (E) 07:12:57 435.675
PCSat 28 Feb 07:12:00 07:16:46 32° 249° (WSW) 07:21:28 145.827
STRAND 1 28 Feb 07:29:23 07:32:50 17° 271° (W) 07:36:06 437.568
GONETS M04 28 Feb 07:53:13 08:00:46 32° 64° (ENE) 08:08:30
Cubesat XI-IV 28 Feb 07:57:30 08:01:38 22° 299° (WNW) 08:05:38 437.490
BRITE-PL 28 Feb 07:59:51 08:03:59 30° 93° (E) 08:07:54 437.365/2234.400
CUTE-I 28 Feb 08:07:38 08:11:24 19° 300° (WNW) 08:15:00 437.470
CANX-2 28 Feb 08:08:00 08:11:28 24° 93° (E) 08:15:00 2200.000
SEEDS 28 Feb 08:09:41 08:12:46 20° 91° (E) 08:15:56 437.485
SO-50 28 Feb 08:09:46 08:11:28 12° 19° (NNE) 08:13:15 436.795
GOMX 1 28 Feb 08:19:23 08:23:24 31° 94° (E) 08:27:14 467.674
CUTE 1.7 + AOD 2 28 Feb 08:26:46 08:30:39 34° 96° (E) 08:34:34 437.475
RS-15 28 Feb 08:29:25 08:40:52 89° 55° (NE) 08:52:50 29.354- 29.394
AIST 1 28 Feb 08:31:28 08:35:05 24° 290° (WNW) 08:38:41
POLYITAN 1 28 Feb 08:41:17 08:42:52 12° 60° (ENE) 08:44:37 437.675
CUBEBUG 2 28 Feb 08:41:51 08:42:44 11° 86° (E) 08:43:52 437.445
POPSAT HIP 1 28 Feb 08:43:11 08:44:51 12° 60° (ENE) 08:46:43 437.405
UNISAT 6 28 Feb 08:43:54 08:47:11 21° 65° (ENE) 08:50:31 437.425
HO-68 28 Feb 08:52:48 08:59:57 65° 103° (ESE) 09:07:06 435.675
Oscar 11 28 Feb 08:53:12 08:56:27 21° 92° (E) 08:59:47 145.826/435.025
NANOSAT C BR1 28 Feb 09:05:53 09:08:59 20° 65° (ENE) 09:12:10 145.865
DOVE 4 28 Feb 09:07:32 09:11:55 68° 102° (ESE) 09:16:06 437.250
TIGRISAT 28 Feb 09:09:33 09:13:35 36° 69° (ENE) 09:17:35 435.000
DELFI C3 28 Feb 09:10:57 09:14:18 24° 94° (E) 09:17:42 145.870
DX 1 28 Feb 09:12:57 09:15:40 16° 90° (E) 09:18:30 434.975-435.025
AAUSAT CUBESAT 2 28 Feb 09:21:07 09:25:20 83° 103° (ESE) 09:29:31 437.432
ANTELSAT 28 Feb 09:21:18 09:25:32 48° 72° (ENE) 09:29:45 437.575/2403.000
COMPASS 1 28 Feb 09:21:26 09:25:39 86° 284° (WNW) 09:29:52 437.405
FUNcube-1 28 Feb 09:31:47 09:35:14 25° 94° (E) 09:38:43 145.935
ZACube-1 28 Feb 09:31:57 09:35:26 26° 94° (E) 09:38:57 437.345
CINEMA 3 28 Feb 09:36:29 09:40:44 75° 102° (ESE) 09:44:52 145.822/145.860
QB50P1 28 Feb 09:36:54 09:40:54 40° 70° (ENE) 09:44:56 145.935-145.965
BRITE-PL 28 Feb 09:38:22 09:42:32 30° 294° (WNW) 09:46:23 437.365/2234.400
QB50P2 28 Feb 09:39:39 09:43:43 43° 71° (ENE) 09:47:49 145.880/145.840
CANX-2 28 Feb 09:43:39 09:47:30 33° 291° (WNW) 09:51:18 2200.000
UWE-3 28 Feb 09:44:25 09:48:23 42° 98° (E) 09:52:21 435.000/436.395/437.385
SEEDS 28 Feb 09:44:49 09:48:48 41° 289° (WNW) 09:52:46 437.485
UKube-1 28 Feb 09:45:16 09:49:12 32° 96° (E) 09:53:08 .
O/OREOS (USA 219) 28 Feb 09:47:50 09:52:20 63° 111° (ESE) 09:56:53 437.305
SO-50 28 Feb 09:48:59 09:53:29 35° 42° (NE) 09:58:02 436.795
GONETS M04 28 Feb 09:49:42 09:58:19 65° 267° (W) 10:06:56
DUCHIFAT 1 28 Feb 09:57:04 10:01:19 64° 74° (ENE) 10:05:34 145.980
HUMSAT D 28 Feb 09:57:26 10:00:53 26° 94° (E) 10:04:22 437.325/437.525
GOMX 1 28 Feb 09:57:38 10:01:30 27° 294° (WNW) 10:05:08 467.674
BUGSAT 1 28 Feb 10:01:48 10:05:58 55° 73° (ENE) 10:10:12 437.445
CUTE 1.7 + AOD 2 28 Feb 10:03:00 10:06:27 24° 293° (WNW) 10:09:51 437.475
CUSAT 1 28 Feb 10:10:20 10:10:52 10° 64° (ENE) 10:11:30 437.405
ISS 28 Feb 10:13:06 10:16:13 47° 145° (SE) 10:19:21 145.825
POLYITAN 1 28 Feb 10:13:55 10:18:15 83° 259° (WSW) 10:22:34 437.675
POPSAT HIP 1 28 Feb 10:15:54 10:20:12 81° 257° (WSW) 10:24:31 437.405
CUBEBUG 2 28 Feb 10:15:55 10:20:06 73° 285° (WNW) 10:24:13 437.445
UNISAT 6 28 Feb 10:19:32 10:23:46 43° 262° (W) 10:27:56 437.425
50 SAT 28 Feb 10:23:24 10:27:01 34° 97° (E) 10:30:39 437.505
Oscar 11 28 Feb 10:28:46 10:32:50 40° 290° (WNW) 10:36:53 145.826/435.025
AISAT 28 Feb 10:38:22 10:42:45 52° 100° (E) 10:47:05 437.250
NANOSAT C BR1 28 Feb 10:40:28 10:44:35 44° 262° (W) 10:48:43 145.865
HO-68 28 Feb 10:41:11 10:47:17 30° 302° (WNW) 10:53:14 435.675
RS-15 28 Feb 10:42:57 10:52:09 28° 255° (WSW) 11:01:11 29.354- 29.394
DELFI C3 28 Feb 10:45:55 10:49:34 31° 291° (WNW) 10:53:10 145.870
TIGRISAT 28 Feb 10:46:49 10:50:28 24° 267° (W) 10:53:59 435.000
DOVE 4 28 Feb 10:46:53 10:49:10 14° 300° (WNW) 10:51:15 437.250
DX 1 28 Feb 10:48:00 10:52:18 54° 288° (WNW) 10:56:33 434.975-435.025
VELOX 1 28 Feb 10:49:13 10:53:41 66° 102° (ESE) 10:58:05 145.980
CUBEBUG 1 28 Feb 10:51:49 10:55:47 32° 95° (E) 10:59:45 437.445
ESTCUBE 1 28 Feb 10:54:23 10:58:39 38° 97° (E) 11:02:54 437.505/2401.250
AAUSAT CUBESAT 2 28 Feb 10:58:57 11:00:25 11° 299° (WNW) 11:01:43 437.432
ANTELSAT 28 Feb 10:59:32 11:02:39 18° 269° (W) 11:05:36 437.575/2403.000
COMPASS 1 28 Feb 11:00:16 11:00:45 10° 300° (WNW) 11:01:01 437.405
DANDE 28 Feb 11:05:30 11:08:20 45° 75° (ENE) 11:10:53 436.750
FUNcube-1 28 Feb 11:07:57 11:11:38 30° 291° (WNW) 11:15:15 145.935
ZACube-1 28 Feb 11:08:11 11:11:51 30° 292° (WNW) 11:15:28 437.345
CINEMA 3 28 Feb 11:15:37 11:17:24 12° 300° (WNW) 11:19:00 145.822/145.860
